KC3BHK-2 Weather Reports


time (UTC)temp
C
wind
direction
speed
KPH
gust
KPH
rain 1hr
cm
rain 24hr
cm
rain mn
cm
humidity
%
barometer
mb
20260505214815 27 208 11.3 24.1 0.00 0.00 0.00
20260505214310 26 211 12.9 27.4 0.00 0.00 0.00
20260505213806 26 136 20.9 25.7 0.00 0.00 0.00
20260505213258 27 186 12.9 29.0 0.00 0.00 0.00
20260505212754 26 173 19.3 35.4 0.00 0.00 0.00
20260505212249 26 150 20.9 45.1 0.00 0.00 0.00
20260505211744 26 214 14.5 38.6 0.00 0.00 0.00
20260505211240 26 165 24.1 38.6 0.00 0.00 0.00
20260505210735 27 156 17.7 38.6 0.00 0.00 0.00
20260505210227 28 184 19.3 41.8 0.00 0.00 0.00
20260505205723 27 235 11.3 33.8 0.00 0.00 0.00
20260505205218 28 177 24.1 29.0 0.00 0.00 0.00
20260505204713 28 146 20.9 35.4 0.00 0.00 0.00
20260505204208 28 218 25.7 43.5 0.00 0.00 0.00
20260505203703 28 174 16.1 32.2 0.00 0.00 0.00
20260505203156 28 186 19.3 33.8 0.00 0.00 0.00
20260505202651 28 181 14.5 38.6 0.00 0.00 0.00
20260505202146 29 194 20.9 40.2 0.00 0.00 0.00
20260505201642 28 190 24.1 43.5 0.00 0.00 0.00
20260505201136 27 197 24.1 33.8 0.00 0.00 0.00
20260505200631 28 169 14.5 40.2 0.00 0.00 0.00
20260505200124 29 218 17.7 38.6 0.00 0.00 0.00
20260505195114 28 162 35.4 38.6 0.00 0.00 0.00
20260505194610 29 146 35.4 30.6 0.00 0.00 0.00
20260505194104 29 120 24.1 30.6 0.00 0.00 0.00
20260505193600 29 124 12.9 45.1 0.00 0.00 0.00
20260505193052 28 131 20.9 30.6 0.00 0.00 0.00
20260505192547 29 165 22.5 40.2 0.00 0.00 0.00
20260505192041 28 129 12.9 37.0 0.00 0.00 0.00
20260505191536 29 174 22.5 33.8 0.00 0.00 0.00
20260505191032 28 191 20.9 30.6 0.00 0.00 0.00
20260505190526 28 131 19.3 30.6 0.00 0.00 0.00
20260505190018 28 210 17.7 32.2 0.00 0.00 0.00
20260505185514 28 176 22.5 37.0 0.00 0.00 0.00
20260505185009 28 167 16.1 32.2 0.00 0.00 0.00
20260505184503 27 163 17.7 43.5 0.00 0.00 0.00
20260505183959 28 163 14.5 35.4 0.00 0.00 0.00
20260505183454 28 174 22.5 35.4 0.00 0.00 0.00
20260505182946 28 124 16.1 32.2 0.00 0.00 0.00
20260505182442 28 159 12.9 25.7 0.00 0.00 0.00
20260505181937 28 208 20.9 24.1 0.00 0.00 0.00
20260505181432 27 198 12.9 32.2 0.00 0.00 0.00
20260505180927 28 183 29.0 25.7 0.00 0.00 0.00
20260505180422 27 163 14.5 29.0 0.00 0.00 0.00
20260505175915 27 190 14.5 25.7 0.00 0.00 0.00
20260505175410 28 231 19.3 32.2 0.00 0.00 0.00
20260505174906 28 190 20.9 32.2 0.00 0.00 0.00
20260505174401 28 239 12.9 25.7 0.00 0.00 0.00
20260505173856 27 167 16.1 30.6 0.00 0.00 0.00
20260505173352 27 195 14.5 32.2 0.00 0.00 0.00
20260505172844 27 148 19.3 27.4 0.00 0.00 0.00
20260505172340 28 191 11.3 30.6 0.00 0.00 0.00
20260505171835 27 146 11.3 29.0 0.00 0.00 0.00
20260505171331 28 219 8.0 33.8 0.00 0.00 0.00
20260505170826 27 208 12.9 22.5 0.00 0.00 0.00
20260505170321 27 193 16.1 33.8 0.00 0.00 0.00
20260505165814 27 183 17.7 27.4 0.00 0.00 0.00
20260505165309 27 197 9.7 32.2 0.00 0.00 0.00
20260505164804 27 197 27.4 27.4 0.00 0.00 0.00
20260505164259 27 239 19.3 24.1 0.00 0.00 0.00
20260505163755 27 190 16.1 30.6 0.00 0.00 0.00
20260505163250 28 228 12.9 27.4 0.00 0.00 0.00
20260505162743 27 219 14.5 30.6 0.00 0.00 0.00
20260505162237 27 212 27.4 20.9 0.00 0.00 0.00
20260505161731 27 193 11.3 25.7 0.00 0.00 0.00
20260505160721 27 236 11.3 27.4 0.00 0.00 0.00
20260505160216 26 253 14.5 29.0 0.00 0.00 0.00
20260505153146 26 163 22.5 30.6 0.00 0.00 0.00
20260505152637 26 212 19.3 25.7 0.00 0.00 0.00
20260505152133 26 269 22.5 29.0 0.00 0.00 0.00
20260505151628 26 181 17.7 29.0 0.00 0.00 0.00
20260505151124 26 217 12.9 25.7 0.00 0.00 0.00
20260505150619 26 194 22.5 27.4 0.00 0.00 0.00
20260505150114 26 186 24.1 30.6 0.00 0.00 0.00
20260505140518 23 215 12.9 19.3 0.00 0.00 0.00
20260505124858 16 136 6.4 12.9 0.00 0.00 0.00
20260505124353 16 121 8.0 12.9 0.00 0.00 0.00
20260505123847 16 191 9.7 11.3 0.00 0.00 0.00
20260505123343 16 165 4.8 11.3 0.00 0.00 0.00
20260505122838 16 134 8.0 14.5 0.00 0.00 0.00
20260505122331 16 138 6.4 9.7 0.00 0.00 0.00
20260505121826 15 207 4.8 14.5 0.00 0.00 0.00
20260505121321 15 139 6.4 11.3 0.00 0.00 0.00
20260505120817 15 201 4.8 9.7 0.00 0.00 0.00
20260505120312 15 160 4.8 11.3 0.00 0.00 0.00
20260505115807 14 195 4.8 11.3 0.00 0.00 0.00
20260505115300 15 156 4.8 9.7 0.00 0.00 0.00
20260505114250 14 176 3.2 8.0 0.00 0.00 0.00
20260505113746 13 173 4.8 9.7 0.00 0.00 0.00
20260505113240 13 201 6.4 11.3 0.00 0.00 0.00
20260505112735 13 128 1.6 6.4 0.00 0.00 0.00
20260505112227 13 163 0.0 4.8 0.00 0.00 0.00
20260505111723 12 135 0.0 0.0 0.00 0.00 0.00
20260505111218 11 135 0.0 0.0 0.00 0.00 0.00
20260505110713 12 135 0.0 0.0 0.00 0.00 0.00
20260505110209 11 135 0.0 0.0 0.00 0.00 0.00
20260505102124 11 135 0.0 0.0 0.00 0.00 0.00
20260505101619 10 135 0.0 0.0 0.00 0.00 0.00
20260505101114 11 135 0.0 0.0 0.00 0.00 0.00
20260505100609 10 135 0.0 0.0 0.00 0.00 0.00
20260505100105 11 135 0.0 0.0 0.00 0.00 0.00
20260505095600 11 135 0.0 0.0 0.00 0.00 0.00
20260505095052 11 135 0.0 0.0 0.00 0.00 0.00
20260505094546 11 135 0.0 0.0 0.00 0.00 0.00
20260505094041 11 135 0.0 0.0 0.00 0.00 0.00
20260505093536 11 135 0.0 0.0 0.00 0.00 0.00
20260505093032 11 135 0.0 0.0 0.00 0.00 0.00
20260505092527 11 135 0.0 0.0 0.00 0.00 0.00
20260505092019 10 135 0.0 0.0 0.00 0.00 0.00
20260505091514 11 135 0.0 0.0 0.00 0.00 0.00
20260505091009 11 135 0.0 0.0 0.00 0.00 0.00
20260505090504 11 135 0.0 3.2 0.00 0.00 0.00
20260505085454 11 139 0.0 0.0 0.00 0.00 0.00
20260505084947 11 139 0.0 0.0 0.00 0.00 0.00
20260505084442 11 139 0.0 0.0 0.00 0.00 0.00
20260505083937 11 139 0.0 0.0 0.00 0.00 0.00
20260505083432 10 139 0.0 0.0 0.00 0.00 0.00
20260505082927 10 139 0.0 0.0 0.00 0.00 0.00
20260505082423 10 139 0.0 0.0 0.00 0.00 0.00
20260505081915 11 139 0.0 0.0 0.00 0.00 0.00
20260505081410 10 139 0.0 0.0 0.00 0.00 0.00
20260505080400 10 139 0.0 0.0 0.00 0.00 0.00
20260505075855 10 139 0.0 0.0 0.00 0.00 0.00
20260505075351 10 139 0.0 0.0 0.00 0.00 0.00
20260505074843 10 139 0.0 0.0 0.00 0.00 0.00
20260505074338 10 139 0.0 0.0 0.00 0.00 0.00
20260505073833 10 139 0.0 0.0 0.00 0.00 0.00
20260505073328 10 139 0.0 0.0 0.00 0.00 0.00
20260505072823 10 139 0.0 0.0 0.00 0.00 0.00
20260505072319 11 139 0.0 0.0 0.00 0.00 0.00
20260505071811 11 139 0.0 0.0 0.00 0.00 0.00
20260505071306 11 139 0.0 0.0 0.00 0.00 0.00
20260505070801 11 139 0.0 0.0 0.00 0.00 0.00
20260505070257 11 139 0.0 0.0 0.00 0.00 0.00
20260505065752 12 139 0.0 0.0 0.00 0.00 0.00
20260505065247 11 139 0.0 0.0 0.00 0.00 0.00
20260505064739 10 139 0.0 0.0 0.00 0.00 0.00
20260505064235 10 139 0.0 3.2 0.00 0.00 0.00
20260505063730 11 179 3.2 0.0 0.00 0.00 0.00
20260505063225 11 190 0.0 0.0 0.00 0.00 0.00
20260505062720 11 190 0.0 0.0 0.00 0.00 0.00
20260505062216 11 190 0.0 0.0 0.00 0.00 0.00
20260505061203 12 190 0.0 1.6 0.00 0.00 0.00
20260505060658 12 181 0.0 0.0 0.00 0.00 0.00
20260505060154 12 181 0.0 1.6 0.00 0.00 0.00
20260505055649 12 194 1.6 3.2 0.00 0.00 0.00
20260505055144 12 176 0.0 0.0 0.00 0.00 0.00
20260505054637 12 176 0.0 3.2 0.00 0.00 0.00
20260505054132 13 179 1.6 4.8 0.00 0.00 0.00
20260505053626 13 233 3.2 4.8 0.00 0.00 0.00
20260505053121 15 226 3.2 4.8 0.00 0.00 0.00
20260505052617 14 135 3.2 0.0 0.00 0.00 0.00
20260505052112 15 159 0.0 0.0 0.00 0.00 0.00
20260505051604 14 159 0.0 0.0 0.00 0.00 0.00
20260505051058 15 159 0.0 6.4 0.00 0.00 0.00
20260505050554 15 159 0.0 8.0 0.00 0.00 0.00
20260505041458 16 163 8.0 12.9 0.00 0.00 0.00
20260505040953 17 148 9.7 14.5 0.00 0.00 0.00
20260505040448 17 155 9.7 12.9 0.00 0.00 0.00
20260505035944 17 132 6.4 9.7 0.00 0.00 0.00
20260505035439 17 162 6.4 11.3 0.00 0.00 0.00
20260505034934 17 170 3.2 9.7 0.00 0.00 0.00
20260505034426 17 163 8.0 11.3 0.00 0.00 0.00
20260505033922 17 160 4.8 14.5 0.00 0.00 0.00
20260505033417 17 167 6.4 12.9 0.00 0.00 0.00
20260505032912 17 152 6.4 11.3 0.00 0.00 0.00
20260505032408 17 110 3.2 9.7 0.00 0.00 0.00
20260505031903 17 167 6.4 12.9 0.00 0.00 0.00
20260505030346 18 148 4.8 12.9 0.00 0.00 0.00
20260505025841 18 145 4.8 12.9 0.00 0.00 0.00
20260505025336 18 138 6.4 11.3 0.00 0.00 0.00
20260505024830 17 152 9.7 12.9 0.00 0.00 0.00
20260505024323 17 176 6.4 11.3 0.00 0.00 0.00
20260505023818 18 162 6.4 9.7 0.00 0.00 0.00
20260505023314 18 197 4.8 8.0 0.00 0.00 0.00
20260505022809 18 179 4.8 9.7 0.00 0.00 0.00
20260505022304 18 219 3.2 12.9 0.00 0.00 0.00
20260505021800 18 198 9.7 14.5 0.00 0.00 0.00
20260505021252 18 217 6.4 14.5 0.00 0.00 0.00
20260505020748 18 221 6.4 12.9 0.00 0.00 0.00
20260505020243 18 219 8.0 14.5 0.00 0.00 0.00
20260505015738 19 205 9.7 16.1 0.00 0.00 0.00
20260505015233 19 165 9.7 17.7 0.00 0.00 0.00
20260505014729 20 172 8.0 17.7 0.00 0.00 0.00
20260505014221 20 153 8.0 16.1 0.00 0.00 0.00
20260505013716 20 174 14.5 22.5 0.00 0.00 0.00
20260505013212 20 172 9.7 16.1 0.00 0.00 0.00
20260505012707 20 186 8.0 16.1 0.00 0.00 0.00
20260505012202 20 172 11.3 14.5 0.00 0.00 0.00
20260505011658 20 180 12.9 14.5 0.00 0.00 0.00
20260505011150 20 162 11.3 16.1 0.00 0.00 0.00
20260505010645 20 158 8.0 20.9 0.00 0.00 0.00
20260505010141 20 201 14.5 20.9 0.00 0.00 0.00
20260505005636 20 177 11.3 17.7 0.00 0.00 0.00
20260505005131 20 152 6.4 20.9 0.00 0.00 0.00
20260505004627 21 146 12.9 17.7 0.00 0.00 0.00
20260505004119 20 163 8.0 19.3 0.00 0.00 0.00
20260505003614 20 160 14.5 19.3 0.00 0.00 0.00
20260505003110 20 180 16.1 17.7 0.00 0.00 0.00
20260505002605 21 174 12.9 16.1 0.00 0.00 0.00
20260505002100 21 143 6.4 20.9 0.00 0.00 0.00
20260505001556 21 158 8.0 17.7 0.00 0.00 0.00
20260505001048 21 170 6.4 24.1 0.00 0.00 0.00
20260505000544 21 170 6.4 24.1 0.00 0.00 0.00
20260505000039 21 143 9.7 16.1 0.00 0.00 0.00
20260504235535 21 153 12.9 16.1 0.00 0.00 0.00
20260504235030 21 129 8.0 19.3 0.00 0.00 0.00
20260504234525 21 204 9.7 17.7 0.00 0.00 0.00
20260504234018 21 165 9.7 20.9 0.00 0.00 0.00
20260504233513 22 195 12.9 22.5 0.00 0.00 0.00
20260504233008 21 162 14.5 17.7 0.00 0.00 0.00
20260504232504 22 186 14.5 19.3 0.00 0.00 0.00
20260504231959 22 127 12.9 17.7 0.00 0.00 0.00
20260504231454 22 153 12.9 20.9 0.00 0.00 0.00
20260504230946 22 145 12.9 20.9 0.00 0.00 0.00
20260504230441 23 143 11.3 20.9 0.00 0.00 0.00
20260504225936 23 165 14.5 19.3 0.00 0.00 0.00
20260504225431 23 159 8.0 22.5 0.00 0.00 0.00
20260504224926 23 169 12.9 30.6 0.00 0.00 0.00
20260504224422 23 198 8.0 33.8 0.00 0.00 0.00
20260504223914 25 180 19.3 25.7 0.00 0.00 0.00
20260504223410 23 146 12.9 30.6 0.00 0.00 0.00
20260504222401 24 148 14.5 22.5 0.00 0.00 0.00
20260504221856 24 191 11.3 25.7 0.00 0.00 0.00
20260504221351 24 203 9.7 29.0 0.00 0.00 0.00
20260504220844 25 203 12.9 25.7 0.00 0.00 0.00
20260504215835 26 183 8.0 19.3 0.00 0.00 0.00
20260504215330 26 215 6.4 19.3 0.00 0.00 0.00